FENGYUN 1C DEB, 31841

Orbit data source: Space-Track

FENGYUN 1C DEB, 31841 is space debris in SSO originally from a launch on Mon, 10 May 1999 UTC launched from the Taiyaun Space Center, China (TSC). Fengyun 1C debris stems from the Chinese weather satellite Fengyun-1C, which was intentionally destroyed by a Chinese anti-satellite missile in 2007. This event dramatically increased the amount of space debris, with thousands of trackable fragments posing hazards to satellites and human spaceflight. The Fengyun 1C debris cloud has become a focal point in discussions about space sustainability and the need for international regulations to prevent the creation of new debris.

Loading next visibility...
Identifier
31841, 1999-025CJF
Orbit
SSO
Country
Flag of CNCN / PRC
Related business
Manufacturer
Unknown
Mission
Spacecraft
Bus & Motor
Unknown
Mass
Unknown
Launch date (UTC)
1999-05-10 (27 years ago)
Launch vehicle
Unknown
Launch site
Taiyaun Space Center, China (TSC)
Object type
Payload
Rocket body
Debris
Shape & HBR
Unknown shape, 0.1 m
Radar Cross Section
Small (<0.1 m²)

Expand to show TLE details & history
Last TLE update: 2 days ago

TLE from 2 days ago
0 FENGYUN 1C DEB
1 31841U 99025CJF 26207.19033189  .00002111  00000-0  87824-3 0  9990
2 31841  98.4418   5.3218 0302279  26.0956 148.2680 14.05504503625046
Epoch: 2026-07-26T04:34Z
TLE epoch observation values (Epoch: 2026-07-26T04:34:04.675Z)
Latitude
3.738°
Longitude
173.46323°
Altitude
1,065.567 km
Speed
7.224 km/s
True Right ascension
12h 23m 29s
True Declination
3° 42' 60"
Sunlit
Object was in daylight at epoch
Visualization orbit readout
Latitude
Unknown
Longitude
Unknown
Altitude
Unknown
Speed
Unknown
Apparent Right ascension
Unknown
Apparent Declination
Unknown
Sunlit
N/A
Visualization observer readout
Local Sidereal Time
20:35:09
Azimuth
Unknown
Elevation
Unknown
Doppler factor
Unknown
Orbital elements
Apogee altitude
1,091.113 km
Perigee altitude
652.803 km
Semi-major axis
7,250.095 km
Eccentricity
0.03023
Inclination
98.4418°
RAAN
5.3218°
Arg. of periapsis
26.0956°
True anomaly
150.03274°
Mean anomaly
148.268°
Eccentric anomaly
149.15597°
Mean motion
3.51583 °/min
Orbital period
102.39 mins
BSTAR
0.00087824
Loading maneuver chart data...
Computing Atmospheric mass density...

Documentation

Showing up to 5 results
|